Valladolid Airport, Spain

10:34 AM CEST on June 25, 2017 (GMT +0200)
Villanubla

Weather History for LEVD - December, 2013

Change the Weather History Date:

Wednesday, December 25, 2013

  Actual Average Record
Temperature  
Mean Temperature 38 °F -  
Max Temperature 42 °F - - ()
Min Temperature 33 °F - - ()
Degree Days  
Heating Degree Days 28    
Moisture  
Dew Point 36 °F    
Average Humidity 93    
Maximum Humidity 100    
Minimum Humidity 69    
Precipitation  
Precipitation 0.16 in - - ()
Sea Level Pressure  
Sea Level Pressure 29.47 in    
Wind  
Wind Speed 13 mph ()    
Max Wind Speed 22 mph    
Max Gust Speed 36 mph    
Visibility 6.7 miles    
Events Rain    
T = Trace of Precipitation, MM = Missing Value Source: Averaged Metar Reports

Daily Weather History Graph

Daily Weather History Graph

Search for Another Location

Airport or City:

Trip Planner

Search our weather history database for the weather conditions in past years. The results will help you decide how hot, cold, wet, or windy it might be!

Date:

Astronomy

Dec. 25, 2013 Rise Set
Actual Time 8:44 AM CET 5:54 PM CET
Civil Twilight 8:13 AM CET 6:25 PM CET
Nautical Twilight 7:38 AM CET 7:00 PM CET
Astronomical Twilight 7:04 AM CET 7:34 PM CET
Moon 12:53 AM CET 12:55 PM CET
Length of Visible Light 10h 12m
Length of Day
9h 09m
Waning Gibbous, 51% of the Moon is Illuminated
Dec 25
Waning Gibbous
Dec 25
Last Quarter
Jan 1
New
Jan 8
First Quarter
Jan 16
Full

Hourly Weather History & Observations

Time (CET) Temp. Windchill Dew Point Humidity Pressure Visibility Wind Dir Wind Speed Gust Speed Precip Events Conditions
7:00 AM 39 °F - 38 °F 97%  in 9 mi SW 10.4 mph - -   Partly Cloudy
7:00 AM 39.2 °F 32.5 °F 39.2 °F 100% 29.44 in 6.2 mi SW 10.4 mph - N/A   Mostly Cloudy
7:30 AM 39.2 °F 33.6 °F 39.2 °F 100% 29.44 in 6.2 mi SW 8.1 mph - N/A   Mostly Cloudy
8:00 AM 39.2 °F 32.5 °F 39.2 °F 100% 29.44 in 6.2 mi SW 10.4 mph - N/A   Mostly Cloudy
8:30 AM 39.2 °F 35.0 °F 39.2 °F 100% 29.42 in 5.0 mi SW 5.8 mph - N/A Rain Rain
9:00 AM 39.2 °F 31.2 °F 39.2 °F 100% 29.42 in 5.0 mi SW 13.8 mph - N/A Rain Light Rain
9:30 AM 37.4 °F 30.8 °F 37.4 °F 100% 29.42 in 5.0 mi West 9.2 mph - N/A Rain Light Rain
10:00 AM 37 °F - 37 °F 98%  in 7 mi West 16.1 mph - - Rain Light Rain
10:00 AM 37.4 °F 28.2 °F 37.4 °F 100% 29.42 in 6.2 mi West 16.1 mph - N/A Rain Light Rain
10:30 AM 37.4 °F 28.5 °F 37.4 °F 100% 29.42 in 6.2 mi WSW 15.0 mph - N/A Rain Rain
11:00 AM 37.4 °F 28.9 °F 37.4 °F 100% 29.44 in 6.2 mi WSW 13.8 mph - N/A Rain Light Rain
11:30 AM 37.4 °F 28.5 °F 37.4 °F 100% 29.44 in 6.2 mi WSW 15.0 mph - N/A   Mostly Cloudy
12:00 PM 37.4 °F 28.5 °F 37.4 °F 100% 29.44 in 6.2 mi WSW 15.0 mph - N/A Rain Rain
12:30 PM 39.2 °F 29.8 °F 39.2 °F 100% 29.42 in 6.2 mi WSW 18.4 mph - N/A   Mostly Cloudy
1:00 PM 39 °F - 38 °F 97%  in 12 mi WSW 20.7 mph - -   Partly Cloudy
1:00 PM 39.2 °F 29.3 °F 39.2 °F 100% 29.42 in 6.2 mi WSW 20.7 mph - N/A   Mostly Cloudy
1:30 PM 41.0 °F 31.6 °F 39.2 °F 93% 29.42 in 6.2 mi West 20.7 mph - N/A   Mostly Cloudy
2:00 PM 41.0 °F 31.4 °F 37.4 °F 87% 29.42 in 6.2 mi West 21.9 mph - N/A   Mostly Cloudy
2:30 PM 39.2 °F 29.0 °F 37.4 °F 93% 29.42 in 6.2 mi West 21.9 mph - N/A   Scattered Clouds
3:00 PM 41.0 °F 31.6 °F 37.4 °F 87% 29.44 in 6.2 mi West 20.7 mph 35.7 mph N/A   Mostly Cloudy
3:30 PM 39.2 °F 29.6 °F 33.8 °F 81% 29.44 in 6.2 mi West 19.6 mph - N/A   Mostly Cloudy
4:00 PM 41 °F - 34 °F 69%  in 12 mi West 19.6 mph - -   Partly Cloudy
4:00 PM 41.0 °F 31.9 °F 33.8 °F 76% 29.44 in 6.2 mi West 19.6 mph - N/A   Mostly Cloudy
4:30 PM 41.0 °F 31.9 °F 33.8 °F 76% 29.47 in 6.2 mi West 19.6 mph - N/A   Mostly Cloudy
5:00 PM 39.2 °F 30.2 °F 33.8 °F 81% 29.47 in 5.0 mi West 17.3 mph - N/A   Mostly Cloudy
5:30 PM 39.2 °F 30.2 °F 35.6 °F 87% 29.50 in 6.2 mi West 17.3 mph - N/A   Mostly Cloudy
6:00 PM 37.4 °F 27.2 °F 32.0 °F 81% 29.50 in 6.2 mi West 19.6 mph - N/A   Mostly Cloudy
6:30 PM 35.6 °F 25.5 °F 33.8 °F 93% 29.50 in 6.2 mi West 17.3 mph - N/A   Mostly Cloudy
7:00 PM 35 °F - 33 °F 91%  in 12 mi West 19.6 mph - -   Partly Cloudy
7:00 PM 35.6 °F 24.8 °F 33.8 °F 93% 29.53 in 6.2 mi West 19.6 mph - N/A   Mostly Cloudy
7:30 PM 33.8 °F 22.8 °F 32.0 °F 93% 29.56 in 6.2 mi West 18.4 mph - N/A   Mostly Cloudy
8:00 PM 33.8 °F 22.8 °F 32.0 °F 93% 29.56 in 6.2 mi WSW 18.4 mph - N/A   Mostly Cloudy
8:30 PM 33.8 °F 23.5 °F 32.0 °F 93% 29.59 in 6.2 mi WSW 16.1 mph - N/A   Mostly Cloudy
9:00 PM 33.8 °F 23.2 °F 32.0 °F 93% 29.59 in 6.2 mi WSW 17.3 mph - N/A   Mostly Cloudy
9:30 PM 33.8 °F 22.2 °F 32.0 °F 93% 29.62 in 6.2 mi West 20.7 mph - N/A   Mostly Cloudy